This is the latest recevied weather packets stored in our database for station/object KW4UJ. If no packets are shown the sender has not sent any weather packets the latest 10 day(s).
| Time | Temp. | Humidity | Pressure | Rain* | Wind** | Luminosity | Snow |
|---|---|---|---|---|---|---|---|
| 1777417791 | 16.67° C | 75% | 1016.9 hPa | 0 mm | - | 16 W/m² | - |
| 1777417487 | 16.67° C | 74% | 1016.5 hPa | 0 mm | - | 26 W/m² | - |
| 1777417183 | 16.67° C | 74% | 1016.6 hPa | 0 mm | - | 26 W/m² | - |
| 1777416879 | 16.67° C | 74% | 1016.7 hPa | 0 mm | - | 38 W/m² | - |
| 1777416575 | 16.67° C | 74% | 1016.6 hPa | 0 mm | - | 41 W/m² | - |
| 1777416272 | 16.67° C | 74% | 1016.8 hPa | 0 mm | - | 42 W/m² | - |
| 1777415970 | 16.67° C | 73% | 1016.7 hPa | 0 mm | - | 38 W/m² | - |
| 1777415667 | 16.67° C | 73% | 1016.8 hPa | 0 mm | - | 52 W/m² | - |
| 1777415362 | 16.67° C | 73% | 1016.6 hPa | 0 mm | - | 50 W/m² | - |
| 1777415062 | 17.22° C | 74% | 1016.8 hPa | 0 mm | - | 56 W/m² | - |
| 1777414761 | 16.67° C | 73% | 1016.6 hPa | 0 mm | - | 64 W/m² | - |
| 1777414458 | 16.67° C | 72% | 1016.7 hPa | 0 mm | - | 62 W/m² | - |
| 1777414157 | 16.67° C | 72% | 1016.8 hPa | 0 mm | - | 47 W/m² | - |
| 1777413853 | 17.22° C | 72% | 1016.8 hPa | 0 mm | - | 60 W/m² | - |
| 1777413548 | 17.22° C | 71% | 1016.8 hPa | 0 mm | - | 59 W/m² | - |
| 1777413244 | 16.67° C | 69% | 1016.5 hPa | 0 mm | - | 82 W/m² | - |
| 1777412940 | 16.67° C | 69% | 1016.8 hPa | 0 mm | - | 70 W/m² | - |
| 1777412639 | 16.67° C | 69% | 1016.8 hPa | 0 mm | - | 78 W/m² | - |
| 1777412336 | 16.67° C | 68% | 1016.6 hPa | 0 mm | - | 74 W/m² | - |
| 1777412032 | 16.67° C | 68% | 1016.8 hPa | 0 mm | - | 77 W/m² | - |
| 1777411731 | 16.67° C | 67% | 1016.9 hPa | 0 mm | - | 70 W/m² | - |
| 1777411426 | 16.67° C | 67% | 1016.8 hPa | 0 mm | - | 86 W/m² | - |
| 1777411121 | 16.67° C | 68% | 1016.7 hPa | 0 mm | - | 78 W/m² | - |
| 1777410820 | 16.67° C | 66% | 1016.7 hPa | 0 mm | - | 120 W/m² | - |
| 1777410520 | 16.67° C | 67% | 1016.7 hPa | 0 mm | - | 152 W/m² | - |
* Rain latest hour (hover to see other rain measurements)
** Current wind speed in m/s (hover to see current wind gust speed)